SPOOQY-1

Last updated on Mon Oct 11 2021 23:04:52 GMT+0000 (Coordinated Universal Time)

1 44332U 98067QH 21284.53617380 .01262151 11799-4 75779-3 0 9993 2 44332 51.6181 38.0733 0011737 350.0635 10.0148 16.17498437132533

Satellite not in orbit

SPOOQY-1